This is the latest recevied weather packets stored in our database for station/object IZ1RFL-3. If no packets are shown the sender has not sent any weather packets the latest 10 day(s).
| Time | Temp. | Humidity | Pressure | Rain* | Wind** | Luminosity | Snow |
|---|---|---|---|---|---|---|---|
| 1777645862 | 19.44° C | 27% | 1027.4 hPa | - | - | - | - |
| 1777644962 | 19.44° C | 28% | 1027.5 hPa | - | - | - | - |
| 1777644062 | 19.44° C | 26% | 1027.7 hPa | - | - | - | - |
| 1777643162 | 20° C | 25% | 1027.8 hPa | - | - | - | - |
| 1777642262 | 20.56° C | 25% | 1028.1 hPa | - | - | - | - |
| 1777641362 | 20.56° C | 27% | 1028.3 hPa | - | - | - | - |
| 1777640462 | 21.11° C | 25% | 1028.5 hPa | - | - | - | - |
| 1777639562 | 20.56° C | 28% | 1028.8 hPa | - | - | - | - |
| 1777638662 | 19.44° C | 27% | 1028.9 hPa | - | - | - | - |
| 1777637762 | 19.44° C | 25% | 1029.1 hPa | - | - | - | - |
| 1777636862 | 18.33° C | 27% | 1029.2 hPa | - | - | - | - |
| 1777635962 | 18.33° C | 28% | 1029.3 hPa | - | - | - | - |
| 1777635062 | 18.33° C | 28% | 1029.4 hPa | - | - | - | - |
| 1777634162 | 18.33° C | 31% | 1029.4 hPa | - | - | - | - |
| 1777633262 | 17.78° C | 31% | 1029.5 hPa | - | - | - | - |
| 1777632362 | 17.22° C | 35% | 1029.6 hPa | - | - | - | - |
| 1777631462 | 16.67° C | 34% | 1029.6 hPa | - | - | - | - |
| 1777630562 | 16.67° C | 37% | 1029.6 hPa | - | - | - | - |
| 1777629662 | 16.11° C | 37% | 1029.6 hPa | - | - | - | - |
| 1777628762 | 15.56° C | 38% | 1029.5 hPa | - | - | - | - |
| 1777627862 | 15° C | 43% | 1029.5 hPa | - | - | - | - |
| 1777626962 | 15° C | 43% | 1029.5 hPa | - | - | - | - |
| 1777626062 | 13.89° C | 45% | 1029.5 hPa | - | - | - | - |
| 1777625162 | 13.89° C | 45% | 1029.4 hPa | - | - | - | - |
| 1777624262 | 13.33° C | 48% | 1029.2 hPa | - | - | - | - |
* Rain since midnight (hover to see other rain measurements)
** Current wind speed in m/s (hover to see current wind gust speed)